Home   Weather   Bentonville   Past weeks

Flag for USA Past Weather in Bentonville, Arkansas, USA — Yesterday and Last 2 Weeks

Now
30 °F

Passing clouds.


Feels Like: 21 °F
Forecast: 18 / 30 °F
Wind: 12 mph from North

Location: Bentonville Weather Observing Station

Current Time: Dec 7, 2016 at 10:05:56 pm

Latest Report: Dec 7, 2016 at 9:35 pm


Visibility: 10 mi

Pressure: 30.38 "Hg

Humidity: 64%

Dew Point: 19 °F

Location of BentonvilleLocation

Past Weather in Bentonville — Graph

°F

Bentonville Temperature Yesterday

Maximum temperature yesterday: 45 °F (at 12:15 am)
Minimum temperature yesterday: 34 °F (at 9:55 pm)
Average temperature yesterday: 40 °F

High & Low Weather Summary for the Past Weeks

 TemperatureHumidityPressure
High61 °F (Nov 28, 2:55 pm)88% (Nov 23, 2:15 am)30.43 "Hg (Nov 23, 2:15 am)
Low25 °F (Dec 1, 7:15 am)26% (Dec 1, 1:35 pm)29.28 "Hg (Nov 28, 1:15 pm)
Average44 °F63%30.01 "Hg
* Reported Nov 22 8:15 pm — Dec 7 8:55 pm, Bentonville, Weather by CustomWeather, © 2016

Note: Actual official high and low records may vary slightly from our data, if they occured in-between our weather recording intervals... More about our weather records

Advertising

Bentonville Weather History for the Previous 24 Hours

Scroll right to see more
 ConditionsComfort  
Time TempWeatherWind HumidityBarometerVisibility
8:55 pm
Wed, Dec 7
30 °FOvercast.14 mph64%30.36 "Hg10 mi
8:35 pm30 °FOvercast.13 mph64%30.35 "Hg10 mi
8:15 pm30 °FOvercast.10 mph64%30.34 "Hg10 mi
7:35 pm32 °FOvercast.13 mph55%30.33 "Hg10 mi
6:55 pm34 °FOvercast.17 mph48%30.31 "Hg10 mi
6:35 pm34 °FOvercast.12 mph44%30.30 "Hg10 mi
6:15 pm36 °FOvercast.14 mph38%30.29 "Hg10 mi
5:55 pm36 °FOvercast.14 mph44%30.27 "Hg10 mi
5:35 pm36 °FOvercast.8 mph44%30.26 "Hg10 mi
5:15 pm36 °FOvercast.7 mph44%30.25 "Hg10 mi
4:55 pm36 °FOvercast.12 mph44%30.24 "Hg10 mi
4:35 pm36 °FOvercast.8 mph44%30.24 "Hg10 mi
4:15 pm36 °FOvercast.8 mph44%30.23 "Hg10 mi
3:55 pm36 °FOvercast.9 mph44%30.23 "Hg10 mi
3:35 pm36 °FOvercast.12 mph44%30.21 "Hg10 mi
3:15 pm36 °FMostly cloudy.9 mph48%30.20 "Hg10 mi
2:55 pm36 °FOvercast.9 mph48%30.20 "Hg10 mi
2:35 pm34 °FOvercast.8 mph51%30.20 "Hg10 mi
2:15 pm34 °FOvercast.9 mph56%30.19 "Hg10 mi
1:55 pm34 °FOvercast.9 mph56%30.18 "Hg8 mi
1:35 pm34 °FOvercast.8 mph51%30.18 "Hg8 mi
1:15 pm34 °FOvercast.9 mph48%30.18 "Hg10 mi
12:55 pm34 °FMore clouds than sun.9 mph51%30.17 "Hg10 mi
12:35 pm34 °FOvercast.10 mph48%30.18 "Hg8 mi
12:15 pm36 °FOvercast.9 mph44%30.19 "Hg10 mi
11:55 am36 °FOvercast.9 mph38%30.19 "Hg10 mi
11:35 am36 °FOvercast.14 mph38%30.19 "Hg10 mi
11:15 am36 °FOvercast.13 mph38%30.20 "Hg10 mi
10:55 am36 °FOvercast.9 mph38%30.21 "Hg10 mi
10:15 am36 °FOvercast.10 mph38%30.20 "Hg10 mi
9:55 am36 °FOvercast.15 mph38%30.20 "Hg10 mi
9:35 am36 °FOvercast.13 mph38%30.18 "Hg10 mi
9:15 am34 °FOvercast.13 mph41%30.17 "Hg10 mi
8:35 am34 °FOvercast.16 mph44%30.16 "Hg10 mi
8:15 am34 °FOvercast.16 mph41%30.15 "Hg10 mi
7:55 am34 °FOvercast.10 mph41%30.17 "Hg10 mi
7:35 am34 °FOvercast.10 mph44%30.16 "Hg10 mi
7:15 am34 °FOvercast.13 mph41%30.15 "Hg10 mi
6:55 am34 °FOvercast.9 mph44%30.15 "Hg10 mi
6:15 am30 °FPassing clouds.9 mph55%30.15 "Hg10 mi
5:55 am30 °FOvercast.7 mph55%30.16 "Hg10 mi
5:35 am30 °FOvercast.7 mph55%30.15 "Hg10 mi
5:15 am30 °FOvercast.No wind55%30.16 "Hg10 mi
4:55 am28 °FPassing clouds.No wind59%30.15 "Hg10 mi
4:35 am28 °FClear.5 mph59%30.15 "Hg10 mi
4:15 am28 °FClear.5 mph59%30.14 "Hg10 mi
3:55 am28 °FClear.5 mph59%30.14 "Hg10 mi
3:35 am30 °FClear.5 mph55%30.14 "Hg10 mi
3:15 am30 °FClear.5 mph55%30.14 "Hg10 mi
2:55 am30 °FClear.5 mph55%30.14 "Hg10 mi
2:35 am30 °FClear.3 mph55%30.15 "Hg10 mi
2:15 am30 °FClear.5 mph55%30.13 "Hg10 mi
1:55 am30 °FClear.3 mph59%30.13 "Hg10 mi
1:35 am30 °FClear.3 mph55%30.12 "Hg10 mi
1:15 am32 °FClear.6 mph51%30.12 "Hg10 mi
12:55 am32 °FClear.6 mph51%30.09 "Hg10 mi
12:35 am34 °FClear.7 mph51%30.11 "Hg10 mi
12:15 am34 °FClear.6 mph51%30.11 "Hg10 mi
11:55 pm
Tue, Dec 6
34 °FClear.6 mph51%30.11 "Hg10 mi
11:35 pm34 °FClear.5 mph51%30.11 "Hg10 mi
11:15 pm34 °FClear.7 mph51%30.11 "Hg10 mi
10:55 pm34 °FClear.6 mph56%30.10 "Hg10 mi
10:35 pm34 °FClear.6 mph56%30.11 "Hg10 mi
10:15 pm34 °FClear.7 mph56%30.09 "Hg10 mi
Weather by CustomWeather, © 2016

See weather overviewHow to use our weather pages